Regional Weather Roundup
Issued by NWS

Home | Current Version | Previous Version | Graphics & Text | Print | Product List | Glossary On
Versions: 1 2 3 4 5 6 7 8 9 10 11 12 13 14 15 16 17 18 19 20 21 22 23 24 25 26 27 28 29 30 31 32 33 34 35 36 37 38 39 40 41 42 43 44 45 46 47 48 49 50
984
ASUS43 KMPX 301001
RWRMN
WEATHER ROUNDUP FOR MINNESOTA
NATIONAL WEATHER SERVICE TWIN CITIES/CHANHASSEN MN
500 AM CDT SUN APR 30 2017


NOTE: "FAIR" INDICATES FEW OR NO CLOUDS BELOW 12,000 FEET WITH NO
SIGNIFICANT WEATHER AND/OR OBSTRUCTIONS TO VISIBILITY. N/A MEANS
CURRENT SKY AND/OR WEATHER CONDITIONS ARE NOT AVAILABLE.

MNZ060>063-068>070-301100-
   Twin Cities Metro

CITY           SKY/WX    TMP DP  RH WIND       PRES   REMARKS
TWIN CITIES    CLOUDY    45  24  43 E12       30.10F
ST PAUL        CLOUDY    44  26  49 E9        30.11F
CRYSTAL        CLOUDY    42  24  49 NE6       30.09F
LAKEVILLE      CLOUDY    41  28  60 NE10      30.07F
EDEN PRAIRIE   CLOUDY    45  26  47 NE8       30.08F
SOUTH ST PAUL  CLOUDY    44  26  48 NE7       30.10F
LAKE ELMO      CLOUDY    43  27  52 NE8       30.11F
$$
MNZ001>005-007-008-013>017-022>024-027-028-301100-
   Northwest Minnesota

CITY           SKY/WX    TMP DP  RH WIND       PRES   REMARKS
BEMIDJI        CLOUDY    36  20  52 SE3       30.19R
HALLOCK        PTCLDY    34  27  75 SE6       30.16S WCI  29
ROSEAU         PTCLDY    37  28  70 S6        30.18S
WARROAD        CLOUDY    37  28  70 S7        30.19S
THIEF RVR FALL PTCLDY    38  27  64 SE8       30.18S
CROOKSTON      CLOUDY    37  30  75 S8        30.18R
FOSSTON        CLOUDY    36  21  55 SE7       30.19R
DETROIT LAKES  CLOUDY    41  23  48 E5        30.17S
MOORHEAD       PTCLDY    39  27  60 E3        30.17S
PARK RAPIDS    CLOUDY    40  19  43 NE5       30.17R
MAHNOMEN       FAIR      37  23  58 SE5       30.17S
$$
MNZ006-009>011-018-025>026-301100-
   North Central Minnesota

CITY           SKY/WX    TMP DP  RH WIND       PRES   REMARKS
BAUDETTE       CLOUDY    35  23  61 SE5       30.19F WCI  31
FLAG ISLAND    PTCLDY    39  28  65 SE5       30.19S
INTL FALLS     CLOUDY    32  21  64 SE3       30.22F
WASKISH        CLOUDY    34  30  86 CALM      30.21R
BIG FORK       CLOUDY    32  21  64 CALM      30.21S
LONGVILLE      PTCLDY    34  25  69 CALM      30.18S
GRAND RAPIDS   PTCLDY    31  19  61 CALM      30.21S
CRANE LAKE     MOCLDY    27  25  93 CALM      30.25F
ORR            MOCLDY    30  18  59 CALM      30.20S
COOK           MOCLDY    28  21  74 CALM      30.22S
WALKER         FAIR      39  21  47 CALM      30.18S
$$
MNZ012-019>021-037-301100-
   Northeast Minnesota

CITY           SKY/WX    TMP DP  RH WIND       PRES   REMARKS
DULUTH         CLOUDY    37  11  34 E12       30.18S
ELY            PTCLDY    28  19  69 CALM      30.23R
HIBBING        MOCLDY    27  18  69 CALM      30.19F
EVELETH        MOCLDY    32   9  37 NE6       30.21S WCI  27
DULUTH HARBOR  CLOUDY    37  30  75 NE16      30.22R
TWO HARBORS    CLOUDY    39  19  45 NE6       30.18S
SILVER BAY     CLOUDY    37  16  41 NE5       30.19F
GRAND MARAIS     N/A     41  17  38 NE6       30.25F
G MARAIS ARPRT CLOUDY    30  14  51 N5        30.23F WCI  25
$$
MNZ029>031-032-039>041-046>048-054>057-064-301100-
   West Central Minnesota

CITY           SKY/WX    TMP DP  RH WIND       PRES   REMARKS
FERGUS FALLS   MOCLDY    43  21  42 E7        30.14S
WHEATON        CLOUDY    41  21  45 NE6       30.16R
MORRIS         MOCLDY    41  27  56 E9        30.10F
ALEXANDRIA     CLOUDY    39  25  57 E10       30.13S
ELBOW LAKE     FAIR      40  25  55 NE7       30.14R
WADENA         CLOUDY    36  23  60 E6        30.15S
GLENWOOD       CLOUDY    39  27  60 NE9       30.12S
APPLETON       MOCLDY    43  25  49 NE8       30.09F
BENSON         CLOUDY    43  21  42 E9        30.12F
ORTONVILLE     CLOUDY    37  27  65 N7        30.11S
MADISON        CLOUDY    45  28  53 NE9       30.09F
WILLMAR        FAIR      43  28  56 NE10      30.10F
$$
MNZ033>034-036-042>043-049>051-058-059-301100-
   Central Minnesota

CITY           SKY/WX    TMP DP  RH WIND       PRES   REMARKS
ST CLOUD       MOCLDY    40  22  48 NE9       30.12F
SAUK CENTRE    FAIR      39  23  53 NE8       30.12F
PAYNESVILLE    CLOUDY    41  23  49 NE8       30.11F
AITKIN         CLOUDY    37  18  44 E3        30.16S
PINE RIVER     MOCLDY    36  21  55 N3        30.21R
BRAINERD       CLOUDY    37  20  50 NE7       30.17R
STAPLES        CLOUDY    36  21  55 NE3       30.16S
LONG PRAIRIE   FAIR      37  25  60 N6        30.14S
LITTLE FALLS   CLOUDY    39  21  48 NE5       30.15S
LITCHFIELD     CLOUDY    43  28  56 NE9       30.10F
BUFFALO        CLOUDY    41  25  53 NE8       30.11F
MAPLE LAKE     CLOUDY    42  27  55 NE7       30.11F
HUTCHINSON     CLOUDY    42  29  58 NE13      30.09F
$$
MNZ037-044-045-052-053-301100-
   East Central Minnesota

CITY           SKY/WX    TMP DP  RH WIND       PRES   REMARKS
PRINCETON      CLOUDY    43  21  42 NE7       30.13S
MORA           CLOUDY    36  23  60 NE6       30.17S
CAMBRIDGE      CLOUDY    43  25  49 NE6       30.12S
RUSH CITY      CLOUDY    39  21  50 NE8       30.14F
MOOSE LAKE     CLOUDY    34  18  51 NE6       30.16S WCI  29
HINCKLEY       FAIR      36  25  64 NE7       30.16S
CLOQUET        CLOUDY    37   7  28 E10       30.18S
MCGREGOR       CLOUDY    36  21  55 NE5       30.18S
$$
MNZ071>073-080-081-089-090-097-098-301100-
   Southwest Minnesota

CITY           SKY/WX    TMP DP  RH WIND       PRES   REMARKS
MONTEVIDEO     CLOUDY    41  27  56 E9        30.09F
GRANITE FALLS  CLOUDY    44  29  57 NE9       30.09S
CANBY          CLOUDY    43  27  52 CALM      30.09S
MARSHALL       CLOUDY    43  28  55 NE14      30.06F
REDWOOD FALLS  CLOUDY    44  26  49 NE6       30.05F
OLIVIA         CLOUDY    41  28  60 NE8       30.06F
PIPESTONE      MOCLDY    43  23  45 E10       30.02S
WINDOM         MOCLDY    43  28  56 NE14      30.01F
WORTHINGTON    CLOUDY    42  28  57 NE15      30.00F
JACKSON        CLOUDY    43  30  61 NE16      30.00F
TRACY          MOCLDY    43  30  60 E8        30.05S
SLAYTON        CLOUDY    41  28  58 NE12      30.03F
$$
MNZ065>067-074>077-082>085-091>093-301100-
   South Central Minnesota

CITY           SKY/WX    TMP DP  RH WIND       PRES   REMARKS
MANKATO        CLOUDY    44  29  55 NE15      30.03F
NEW ULM        CLOUDY    43  27  52 NE12      30.04F
ST JAMES       CLOUDY    45  30  57 NE12G18   30.03F
FAIRMONT       LGT RAIN  42  33  70 NE13      30.00F
GLENCOE        CLOUDY    44  31  60 NE6       30.07F
FARIBAULT      CLOUDY    43  30  61 NE9       30.05F
OWATONNA       DRIZZLE   43  28  56 NE10      30.03F
WASECA         DRIZZLE   41  32  70 NE12      30.03F
ALBERT LEA     CLOUDY    39  30  70 NE16G22   30.00F
$$
MNZ078>079-086>088-094>096-301100-
   Southeast Minnesota

CITY           SKY/WX    TMP DP  RH WIND       PRES   REMARKS
ROCHESTER      CLOUDY    42  28  57 NE18G26   30.03F
RED WING       CLOUDY    45  25  45 E6        30.08S
STANTON        CLOUDY    44  31  62 NE10      30.06F
DODGE CENTER   DRIZZLE   39  30  70 NE16G23   30.03F
WINONA         CLOUDY    45  28  53 E8        30.07S
AUSTIN         CLOUDY    41  30  65 NE10G18   30.00F
PRESTON        CLOUDY    40  28  60 NE12      30.02F
$$
ABBREVIATIONS USED IN REMARKS
   TC - TEMPERATURES IN CELSIUS
  WCI - WIND CHILL INDEX
   HX - HEAT INDEX
  VSB - VISIBILITY
$$




USA.gov is the U.S. government's official web portal to all federal, state and local government web resources and services.